Location: General Nathan Twining Observatory
(34.5931°N, 106.8201°W)
Time: 13:52:31
(UTC-06:00)

Daily predictions for brighter satellites

Satellite Brightness Start Highest point End
(mag) Time Altitude Azimuth Time Altitude Azimuth Time Altitude Azimuth
CZ-4 R/B 3.9 19:27:31 10° SSW 19:31:04 28° W 19:34:40 10° NW
Cosmos 1707 4.1 19:30:33 10° NNE 19:33:30 20° ENE 19:36:26 10° SE
COSMO-SKYMED 1 3.7 19:30:01 10° N 19:34:14 51° WNW 19:38:25 10° SSW
Cosmos 1340 Rocket 3.5 19:37:36 10° NNE 19:41:17 33° ENE 19:44:58 10° SE
Cosmos 389 Rocket 2.5 19:38:13 10° S 19:41:41 56° E 19:45:07 10° NNE
Cosmos 1709 Rocket 4.0 19:37:13 10° S 19:43:30 75° E 19:49:53 10° N
Cosmos 1758 Rocket 4.1 19:39:40 10° N 19:43:52 38° E 19:48:03 10° SSE
FENGYUN 3A 3.6 19:39:27 10° SSE 19:44:46 72° ENE 19:50:07 10° N
Cosmos 2369 Rocket 2.2 19:39:39 10° NNW 19:45:19 77° ENE 19:50:54 10° SSE
ALOS 2.2 19:41:36 10° SSE 19:46:15 79° ENE 19:50:55 10° N
Cosmos 1726 Rocket 3.6 19:43:57 10° S 19:48:13 55° E 19:52:28 10° NNE
NOSS 2 (A) 4.4 19:46:10 10° NNW 19:48:34 52° ENE 19:51:24 10° SE
Cosmos 1271 Rocket 2.7 19:45:16 10° S 19:49:00 87° W 19:52:49 10° N
FREGAT/IRIS 2.9 19:46:07 10° SSE 19:49:01 45° ENE 19:51:56 10° N
OAO 2 Rocket 4.0 19:44:22 10° W 19:49:34 53° SSW 19:54:34 11° SE
Geosat 4.0 19:44:54 10° SSE 19:49:55 83° ENE 19:54:58 10° NNW
Lacrosse 5 1.8 19:45:46 10° NW 19:50:51 83° NE 19:55:55 10° SE
Resurs 01 Rocket 3.0 19:54:17 14° ESE 19:56:36 21° ENE 19:59:52 10° NNE
BREEZE-M (TANK) 4.4 19:46:23 10° NW 20:02:00 51° NNE 20:05:13 18° E
CZ-2D R/B 4.2 20:01:53 18° ESE 20:03:47 27° ENE 20:07:01 10° NNE
Cosmos 2263 4.1 19:58:10 10° NNW 20:03:48 78° ENE 20:09:27 10° SSE
Cosmos 2298 Rocket 4.2 20:01:41 10° N 20:06:54 52° ENE 20:12:04 10° SSE
SJ-6B 2.9 20:03:21 10° SSE 20:07:21 61° ENE 20:11:18 10° N
Cosmos 2184 Rocket 4.3 20:01:34 10° SSE 20:07:26 45° E 20:13:25 10° NNE
Cosmos 1378 3.2 20:07:54 10° N 20:11:38 54° E 20:15:19 10° SSE
Cosmos 841 Rocket 3.4 20:07:02 10° S 20:12:03 58° ESE 20:17:06 10° NNE
Cosmos 1937 Rocket 3.5 20:10:01 10° N 20:15:16 61° ENE 20:20:08 12° SSE
HJ-1C 3.2 20:15:16 10° SSE 20:18:36 79° ENE 20:21:57 10° N
Meteor 1-24 Rocket 4.2 20:16:57 10° N 20:22:37 43° ENE 20:26:14 20° SE
Cosmos 2058 Rocket 3.1 20:19:02 10° S 20:23:23 80° W 20:27:45 10° N
Milstar 3 Cent rocket 3.1 20:20:51 10° SW 20:24:50 23° SSE 20:25:52 22° SE
Cosmos 2084 3.3 20:22:08 10° SW 20:26:18 79° WNW 20:30:15 10° NNE
Cosmos 2228 3.2 20:23:26 10° S 20:27:48 77° W 20:32:10 10° N
USA 229 DEB 3.8 20:21:16 10° NNW 20:28:32 83° ENE 20:34:28 17° SSE
USA 229 3.8 20:21:23 10° NNW 20:28:37 82° ENE 20:34:29 17° SSE
Cosmos 1953 Rocket 4.0 20:25:59 10° NNW 20:30:15 61° W 20:34:29 10° S
BREEZE-M DEB 2.9 20:23:23 10° NW 20:30:38 65° NNE 20:31:29 45° E
Cosmos 2327 Rocket 4.4 20:26:34 10° S 20:32:39 67° E 20:38:42 10° NNE
Cosmos 1763 Rocket 4.0 20:29:58 10° SSW 20:34:58 60° WNW 20:40:04 10° N
Cosmos 909 Rocket 4.4 20:30:58 10° NNW 20:39:26 86° WSW 20:44:49 18° SSE
NOSS 3-1 (C) 4.2 20:36:24 10° NNW 20:44:01 57° NE 20:47:50 33° ESE
Cosmos 540 Rocket 3.4 20:39:06 10° S 20:44:04 56° ESE 20:49:03 10° NNE
H-2A R/B 4.4 20:42:52 10° SSW 20:46:12 32° W 20:49:35 10° NNW
Meteor 2-5 Rocket 4.1 20:42:29 10° NNW 20:48:18 67° W 20:53:58 10° S
GEOS 3 Rocket 3.6 20:43:57 10° NNE 20:49:22 87° ESE 20:54:44 10° SSW
MOS 1-B Rocket 4.0 20:45:43 25° SSE 20:49:37 66° ENE 20:55:25 10° N
Meteor 2-19 Rocket 4.3 20:47:27 10° S 20:53:24 64° E 20:59:23 10° NNE
Cosmos 1939 Rocket 4.5 20:55:24 22° NNE 20:55:24 22° NNE 20:57:02 10° N
Cosmos 1943 Rocket 3.2 20:48:33 10° NW 20:53:50 45° WSW 20:59:08 10° S
Meteor 1-22 Rocket 4.3 20:48:24 10° SSW 20:54:15 78° W 20:59:53 10° N
Spot 2 Rocket 3.3 20:53:05 44° SSE 20:54:43 79° ENE 20:59:45 10° N
Cosmos 1766 3.5 20:51:10 10° SSW 20:55:06 69° W 20:59:01 10° N
GPS 2-04 Rocket1 4.2 20:53:06 10° W 20:56:49 28° SSW 20:57:13 28° SSW
Cosmos 836 Rocket 4.4 20:51:35 10° SSW 20:56:52 81° ESE 21:02:09 10° NNE
OAO 3 Copernicus 4.1 20:55:58 10° WSW 21:01:01 83° S 21:01:23 76° ESE
Tiangong 2 3.8 21:01:29 10° WSW 21:02:58 14° SW 21:02:58 14° SW
COSMOS 2406 3.4 21:05:01 10° SSW 21:10:40 71° WNW 21:16:24 10° NNE
Cosmos 2154 Rocket 3.8 21:06:18 13° S 21:11:57 83° E 21:18:13 10° N
Cosmos 2341 Rocket 4.1 21:19:03 54° NE 21:19:03 54° NE 21:24:06 10° NNE
Resurs 1-3 4.5 21:18:00 43° SW 21:18:39 46° W 21:22:53 10° NNW
Cosmos 1125 Rocket 4.1 21:15:08 10° N 21:19:07 48° NNE 21:19:07 48° NNE
Envisat 3.6 21:25:55 48° SW 21:26:45 54° W 21:31:43 10° NNW
Resurs 01 Rocket 3.3 21:31:52 27° WSW 21:32:51 29° W 21:36:44 10° NW
Cosmos 1656 Rocket 4.4 21:30:58 10° NNW 21:36:20 46° WSW 21:36:59 44° SW
Nadezhda 3 Rocket 4.3 21:43:59 10° NNW 21:50:11 62° W 21:50:11 62° W
ATLAS CENTAUR R/B 3.8 21:47:38 10° NW 21:55:20 38° W 21:55:20 38° W
FALCON 9 R/B 3.2 21:59:05 10° W 22:01:58 50° W 22:01:58 50° W
ATLAS 2AS CENTAUR R/B 4.2 22:08:05 10° NNW 22:13:11 30° NNE 22:13:11 30° NNE
